| time (UTC) | temp F | wind direction | speed knots | gust knots | rain 1hr in | rain 24hr in | rain mn in | humidity % | barometer mb |
| 20260507124600 | 46 | 249 | 0.9 | 4.3 | 0.00 | 0.10 | 0.00 | 64 | 1012.5 |
| 20260507124508 | 46 | 262 | 1.7 | 5.2 | 0.00 | 0.10 | 0.00 | 64 | 1012.5 |
| 20260507123050 | 45 | 280 | 4.3 | 7.0 | 0.00 | 0.10 | 0.00 | 66 | 1012.5 |
| 20260507121512 | 44 | 279 | 5.2 | 7.0 | 0.00 | 0.10 | 0.00 | 66 | 1012.5 |
| 20260507120105 | 44 | 288 | 2.6 | 7.0 | 0.00 | 0.19 | 0.00 | 71 | 1012.3 |
| 20260507120020 | 44 | 293 | 2.6 | 7.0 | 0.00 | 0.19 | 0.00 | 70 | 1012.3 |
| 20260507114504 | 43 | 301 | 2.6 | 6.1 | 0.00 | 0.19 | 0.00 | 72 | 1012.1 |
| 20260507111540 | 41 | 282 | 1.7 | 3.5 | 0.00 | 0.19 | 0.00 | 80 | 1012.0 |
| 20260507110104 | 40 | 281 | 0.0 | 0.9 | 0.00 | 0.21 | 0.00 | 83 | 1011.9 |
| 20260507104538 | 37 | 281 | 0.9 | 2.6 | 0.00 | 0.21 | 0.00 | 87 | 1011.7 |
| 20260507103003 | 35 | 288 | 0.0 | 0.9 | 0.00 | 0.21 | 0.00 | 90 | 1011.5 |
| 20260507101524 | 34 | 288 | 1.7 | 1.7 | 0.00 | 0.21 | 0.00 | 90 | 1011.6 |
| 20260507100112 | 34 | 288 | 0.9 | 1.7 | 0.00 | 0.22 | 0.00 | 90 | 1011.5 |
| 20260507100002 | 34 | 288 | 0.9 | 1.7 | 0.00 | 0.22 | 0.00 | 90 | 1011.5 |
| 20260507094524 | 35 | 288 | 0.0 | 0.9 | 0.00 | 0.22 | 0.00 | 90 | 1011.4 |
| 20260507093100 | 35 | 288 | 0.0 | 2.6 | 0.00 | 0.22 | 0.00 | 87 | 1011.4 |
| 20260507093002 | 35 | 288 | 0.0 | 2.6 | 0.00 | 0.22 | 0.00 | 87 | 1011.4 |
| 20260507091540 | 36 | 288 | 0.0 | 2.6 | 0.00 | 0.22 | 0.00 | 86 | 1011.3 |
| 20260507090057 | 37 | 288 | 0.9 | 2.6 | 0.00 | 0.22 | 0.00 | 84 | 1011.3 |
| 20260507084539 | 39 | 288 | 0.0 | 1.7 | 0.00 | 0.22 | 0.00 | 79 | 1011.2 |
| 20260507083056 | 40 | 288 | 0.9 | 1.7 | 0.00 | 0.22 | 0.00 | 76 | 1011.3 |
| 20260507081544 | 41 | 288 | 0.0 | 0.9 | 0.00 | 0.22 | 0.00 | 70 | 1011.3 |
| 20260507080054 | 43 | 288 | 0.0 | 2.6 | 0.00 | 0.22 | 0.00 | 67 | 1011.2 |
| 20260507074546 | 44 | 288 | 0.9 | 2.6 | 0.00 | 0.22 | 0.00 | 65 | 1011.2 |
| 20260507073020 | 44 | 293 | 0.9 | 5.2 | 0.00 | 0.22 | 0.00 | 63 | 1011.3 |
| 20260507071540 | 45 | 279 | 1.7 | 7.0 | 0.00 | 0.22 | 0.00 | 62 | 1011.2 |
| 20260507070014 | 45 | 279 | 1.7 | 7.0 | 0.00 | 0.22 | 0.00 | 62 | 1011.0 |
| 20260507064544 | 45 | 259 | 2.6 | 6.1 | 0.00 | 0.22 | 0.00 | 63 | 1011.1 |
| 20260507063019 | 45 | 276 | 1.7 | 5.2 | 0.00 | 0.22 | 0.00 | 65 | 1011.3 |
| 20260507061543 | 45 | 257 | 0.9 | 3.5 | 0.00 | 0.22 | 0.00 | 63 | 1011.3 |
| 20260507060016 | 45 | 279 | 2.6 | 6.1 | 0.00 | 0.22 | 0.00 | 61 | 1011.6 |
| 20260507054537 | 45 | 288 | 1.7 | 6.1 | 0.00 | 0.22 | 0.00 | 63 | 1011.5 |
| 20260507053012 | 45 | 276 | 1.7 | 3.5 | 0.00 | 0.22 | 0.00 | 65 | 1011.4 |
| 20260507051532 | 46 | 265 | 5.2 | 7.8 | 0.00 | 0.22 | 0.00 | 62 | 1011.6 |
| 20260507050012 | 46 | 311 | 3.5 | 6.1 | 0.00 | 0.22 | 0.00 | 61 | 1011.5 |
| 20260507044536 | 46 | 293 | 3.5 | 6.1 | 0.00 | 0.22 | 0.00 | 58 | 1011.5 |
| 20260507043016 | 47 | 272 | 0.0 | 5.2 | 0.00 | 0.22 | 0.00 | 58 | 1011.3 |
| 20260507041547 | 47 | 236 | 1.7 | 6.1 | 0.00 | 0.22 | 0.00 | 55 | 1011.4 |
| 20260507040010 | 47 | 294 | 4.3 | 8.7 | 0.00 | 0.22 | 0.22 | 58 | 1011.0 |
| 20260507034557 | 47 | 295 | 4.3 | 7.0 | 0.00 | 0.22 | 0.22 | 55 | 1011.3 |
| 20260507033106 | 47 | 278 | 1.7 | 6.1 | 0.00 | 0.22 | 0.22 | 58 | 1011.3 |
| 20260507031520 | 47 | 281 | 2.6 | 7.8 | 0.00 | 0.22 | 0.22 | 58 | 1011.1 |
| 20260507030016 | 48 | 286 | 3.5 | 7.8 | 0.00 | 0.22 | 0.22 | 67 | 1010.8 |
| 20260507024555 | 48 | 308 | 2.6 | 7.0 | 0.00 | 0.22 | 0.22 | 69 | 1010.7 |
| 20260507023032 | 49 | 309 | 4.3 | 11.3 | 0.00 | 0.22 | 0.22 | 68 | 1010.6 |
| 20260507021558 | 49 | 285 | 6.1 | 14.8 | 0.00 | 0.22 | 0.22 | 68 | 1010.4 |
| 20260507020034 | 49 | 314 | 6.1 | 10.4 | 0.00 | 0.22 | 0.22 | 79 | 1010.3 |
| 20260507014510 | 50 | 275 | 3.5 | 5.2 | 0.00 | 0.22 | 0.22 | 81 | 1010.5 |
| 20260507013058 | 50 | 250 | 2.6 | 6.1 | 0.00 | 0.22 | 0.22 | 81 | 1010.5 |
| 20260507011508 | 50 | 257 | 1.7 | 2.6 | 0.00 | 0.22 | 0.22 | 84 | 1010.6 |
| 20260507010052 | 50 | 279 | 0.0 | 3.5 | 0.00 | 0.22 | 0.22 | 84 | 1010.5 |
| 20260507004506 | 50 | 267 | 1.7 | 2.6 | 0.00 | 0.22 | 0.22 | 84 | 1010.3 |
| 20260507003026 | 50 | 277 | 0.9 | 3.5 | 0.00 | 0.22 | 0.22 | 84 | 1010.4 |
| 20260507001612 | 50 | 287 | 2.6 | 4.3 | 0.00 | 0.22 | 0.22 | 84 | 1009.8 |
| 20260507001501 | 50 | 288 | 2.6 | 4.3 | 0.00 | 0.22 | 0.22 | 83 | 1009.8 |
| 20260507000042 | 50 | 257 | 1.7 | 5.2 | 0.00 | 0.22 | 0.22 | 83 | 1009.7 |
| 20260506234608 | 51 | 291 | 1.7 | 9.6 | 0.00 | 0.22 | 0.22 | 83 | 1009.3 |
| 20260506234502 | 51 | 291 | 2.6 | 9.6 | 0.00 | 0.22 | 0.22 | 83 | 1009.3 |
| 20260506233042 | 51 | 270 | 3.5 | 7.0 | 0.00 | 0.22 | 0.22 | 83 | 1009.0 |
| 20260506231510 | 51 | 290 | 4.3 | 7.8 | 0.00 | 0.22 | 0.22 | 82 | 1008.8 |
| 20260506230044 | 51 | 278 | 1.7 | 6.1 | 0.00 | 0.22 | 0.22 | 83 | 1008.7 |
| 20260506224620 | 51 | 274 | 4.3 | 9.6 | 0.00 | 0.22 | 0.22 | 83 | 1009.0 |
| 20260506224509 | 51 | 276 | 4.3 | 12.2 | 0.00 | 0.22 | 0.22 | 84 | 1009.0 |
| 20260506223038 | 51 | 288 | 6.1 | 13.9 | 0.00 | 0.22 | 0.22 | 85 | 1008.9 |
| 20260506221514 | 52 | 295 | 7.0 | 12.2 | 0.00 | 0.22 | 0.22 | 84 | 1008.2 |
| 20260506220036 | 53 | 278 | 4.3 | 7.0 | 0.00 | 0.22 | 0.22 | 83 | 1008.1 |
| 20260506214514 | 53 | 280 | 5.2 | 10.4 | 0.00 | 0.22 | 0.22 | 83 | 1008.1 |
| 20260506213046 | 53 | 302 | 5.2 | 12.2 | 0.00 | 0.22 | 0.22 | 83 | 1007.7 |
| 20260506211600 | 54 | 272 | 4.3 | 10.4 | 0.00 | 0.22 | 0.22 | 85 | 1007.5 |
| 20260506211507 | 54 | 287 | 6.1 | 10.4 | 0.00 | 0.22 | 0.22 | 84 | 1007.5 |
| 20260506210036 | 54 | 287 | 6.1 | 8.7 | 0.00 | 0.23 | 0.22 | 84 | 1007.0 |
| 20260506204509 | 55 | 240 | 5.2 | 9.6 | 0.00 | 0.23 | 0.22 | 86 | 1006.9 |
| 20260506203030 | 54 | 231 | 5.2 | 13.0 | 0.00 | 0.23 | 0.22 | 87 | 1006.8 |
| 20260506201513 | 54 | 274 | 8.7 | 13.9 | 0.00 | 0.23 | 0.22 | 91 | 1006.7 |
| 20260506200024 | 54 | 241 | 3.5 | 8.7 | 0.00 | 0.23 | 0.22 | 96 | 1006.6 |
| 20260506194601 | 54 | 198 | 4.3 | 9.6 | 0.00 | 0.23 | 0.22 | 97 | 1006.3 |
| 20260506194502 | 54 | 229 | 5.2 | 9.6 | 0.00 | 0.23 | 0.22 | 97 | 1006.3 |
| 20260506193024 | 53 | 225 | 6.1 | 13.0 | 0.00 | 0.23 | 0.22 | 97 | 1006.2 |
| 20260506191558 | 54 | 245 | 8.7 | 14.8 | 0.00 | 0.23 | 0.22 | 97 | 1006.1 |
| 20260506190022 | 56 | 258 | 3.5 | 9.6 | 0.00 | 0.23 | 0.22 | 97 | 1005.8 |
| 20260506184556 | 56 | 269 | 5.2 | 8.7 | 0.00 | 0.23 | 0.22 | 97 | 1005.6 |
| 20260506183101 | 56 | 255 | 3.5 | 7.0 | 0.00 | 0.23 | 0.22 | 98 | 1005.6 |
| 20260506181522 | 56 | 245 | 3.5 | 7.0 | 0.01 | 0.23 | 0.22 | 98 | 1005.5 |
| 20260506180042 | 56 | 269 | 3.5 | 7.0 | 0.01 | 0.23 | 0.22 | 98 | 1005.5 |
| 20260506174518 | 56 | 247 | 6.1 | 8.7 | 0.02 | 0.23 | 0.22 | 98 | 1005.4 |
| 20260506173047 | 56 | 276 | 3.5 | 9.6 | 0.02 | 0.23 | 0.22 | 98 | 1005.4 |
| 20260506171523 | 57 | 212 | 2.6 | 5.2 | 0.01 | 0.22 | 0.21 | 98 | 1005.3 |
| 20260506170006 | 57 | 238 | 0.9 | 4.3 | 0.01 | 0.21 | 0.21 | 98 | 1005.0 |
| 20260506164522 | 57 | 163 | 0.0 | 4.3 | 0.01 | 0.21 | 0.20 | 98 | 1004.9 |
| 20260506163016 | 57 | 219 | 0.9 | 4.3 | 0.01 | 0.21 | 0.20 | 98 | 1004.9 |
| 20260506161555 | 57 | 132 | 1.7 | 5.2 | 0.02 | 0.21 | 0.20 | 98 | 1005.0 |
| 20260506160031 | 56 | 187 | 3.5 | 7.0 | 0.01 | 0.20 | 0.19 | 98 | 1004.9 |
| 20260506154554 | 56 | 140 | 1.7 | 4.3 | 0.01 | 0.20 | 0.19 | 98 | 1004.9 |
| 20260506153019 | 56 | 199 | 0.0 | 0.9 | 0.01 | 0.20 | 0.19 | 98 | 1004.8 |
| 20260506151554 | 55 | 224 | 0.0 | 0.9 | 0.00 | 0.19 | 0.18 | 98 | 1004.8 |
| 20260506150014 | 55 | 169 | 0.0 | 0.0 | 0.00 | 0.19 | 0.18 | 98 | 1004.7 |
| 20260506144551 | 55 | 131 | 0.0 | 0.0 | 0.00 | 0.19 | 0.18 | 98 | 1004.5 |
| 20260506143016 | 55 | 229 | 0.0 | 0.9 | 0.01 | 0.19 | 0.18 | 97 | 1004.5 |
| 20260506141552 | 54 | 202 | 0.0 | 2.6 | 0.02 | 0.19 | 0.18 | 97 | 1004.5 |
| 20260506140015 | 54 | 153 | 0.0 | 2.6 | 0.03 | 0.19 | 0.18 | 97 | 1004.5 |
| 20260506134549 | 54 | 152 | 1.7 | 4.3 | 0.03 | 0.19 | 0.18 | 97 | 1004.3 |
| 20260506133013 | 55 | 157 | 2.6 | 3.5 | 0.03 | 0.18 | 0.17 | 97 | 1004.5 |
| 20260506131600 | 54 | 198 | 0.0 | 3.5 | 0.02 | 0.17 | 0.16 | 97 | 1004.7 |
| 20260506130039 | 55 | 150 | 0.9 | 1.7 | 0.03 | 0.16 | 0.15 | 97 | 1004.7 |